Regional Weather Roundup
Issued by NWS Charleston, SC

Current Version | Previous Version | Text Only | Print | Product List | Glossary Off
Versions: 1 2 3 4 5 6 7 8 9 10 11 12 13 14 15 16 17 18 19 20 21 22 23 24 25 26 27 28 29 30 31 32 33 34 35 36 37 38 39 40 41 42 43 44 45 46 47 48 49 50

000
ASUS42 KCHS 222012
RWRCHS

Regional Weather Roundup
National Weather Service Charleston SC
300 PM EST THU FEB 22 2018

NOTE: "fair" indicates few or no clouds below 12,000 feet with no
significant weather and/or obstructions to visibility.

Not all stations are quality controlled. Use data with caution,
especially dewpoint observations.

SCZ027-030-031-034>040-042>050-222100-
...Southeast South Carolina...

CITY           SKY/WX    TMP DP  RH WIND       PRES   REMARKS
N Charleston   FAIR      81  57  43 S9        30.41F
Waterfront Prk   N/A     76  60  57 S6        30.28F
Mount Pleasant FAIR      79  61  53 S7        30.42F
Johns Island   FAIR      79  61  53 VRB7G15   30.43S
Pinopolis        N/A     70  64  83 N7        30.34F
Moncks Corner  MOCLDY    79  54  41 SE5       30.41F
Summerville    FAIR      79  59  50 SW5       30.41F
Beaufort MCAS  FAIR      79  61  53 SE8       30.41F
Beaufort Arpt  FAIR      77  59  53 S5        30.42F HAZE
Hilton Head Is MOSUNNY   77  63  61 S9        30.44F
Walterboro     FAIR      79  59  50 S5        30.42F
Allendale      FAIR      77  61  57 CALM      30.40F

...Southern Midlands and Pee Dee...

CITY           SKY/WX    TMP DP  RH WIND       PRES   REMARKS
Georgetown     FAIR      79  55  44 S8        30.43F
Kingstree      CLOUDY    79  57  47 SW8       30.41F
Orangeburg     PTSUNNY   78  62  57 SE8       30.41F
Barnwell         N/A     81  61  50 CALM      30.40F
Aiken          FAIR      79  63  57 S6        30.43F
Manning        CLOUDY    77  12   8 MISG      30.41F
Columbia       FAIR      81  62  52 S7        30.38F
Sumter         CLOUDY    78  61  54 S7        30.39F
Florence       CLOUDY    78  59  51 SW7       30.41F
Myrtle Beach   FAIR      74  63  68 S13       30.44F
N Myrtle Beach FAIR      73  62  68 S10       30.43F

$$

GAZ063-065-086>088-099>101-113>116-118-119-134>141-150-222100-
...Southeast Georgia...

CITY           SKY/WX    TMP DP  RH WIND       PRES   REMARKS
Savannah Arpt  FAIR      82  60  47 SE9       30.41F
Hunter AAF     FAIR      79  60  51 S7        30.39F
Fort Stewart   PTSUNNY   79  58  48 NE5       30.38F
Statesboro     CLOUDY    80  55  42 NE3       30.40F
Sylvania       FAIR      80  63  56 CALM      30.41F
Claxton        FAIR      83  60  45 CALM      30.40F

...CSRA, Central and far Southeast Georgia...

CITY           SKY/WX    TMP DP  RH WIND       PRES   REMARKS
Thomson        PTSUNNY   80  62  54 W6        30.44F
Augusta-Bush   FAIR      82  63  52 SE6       30.38F
Augusta-Daniel FAIR      79  63  57 SE8       30.40F
Swainsboro     CLOUDY    79  63  57 SE3       30.41F
Vidalia        FAIR      81  61  50 CALM      30.39F
Eastman        CLOUDY    79  52  39 CALM      30.42F
Hazlehurst     MOCLDY    80  53  39 CALM      30.38F
Alma           PTSUNNY   81  57  43 E6        30.38F
Waycross       FAIR      83  55  37 E6        30.37F
Jesup          FAIR      84  54  34 CALM      30.38F
Baxley         FAIR      77  55  47 CALM      30.38F
Brunswick      FAIR      77  61  57 SE8       30.41F
Saint Simons   FAIR      76  65  68 E8        30.41F

$$

SCZ027-028-034-036>038-045-046-048>050-GAZ119-141-222100-
...Lake and Supplemental Coastal Observations...

STATION/POSITION TIME  TEMP    WIND        PRES    WAVE   SWELL
                       AIR SEA DIR/SP/G            HT/PER HT/PER/DIR
                 (UTC) (F)     (DEG/KT/KT) (MB)    (FT/S) (FT/S/D)
Winyah Bay       1845   71     140/  8     1031.0
Lake Murray      1920   77      CALM  /  1 1028.8F
ACE Basin NERRS  1845   77     170/  2     1031.0
Fort Pulaski     1948   75 61  190/  5/  9 1030.4F
Sapelo Island    1900   78     110/  6     1030.0

$$

ANZ835-935-AMZ111-154-330-350-352-354-370-450-454-472-222100-
...C-MAN and Buoy Observations...

STATION/POSITION TIME  TEMP    WIND        PRES    WAVE   SWELL
                       AIR SEA DIR/SP/G            HT/PER HT/PER/DIR
                 (UTC) (F)     (DEG/KT/KT) (MB)    (FT/S) (FT/S/D)
Buoy 41004       1950   72 68   10/  2/  4 1030.4F   5/ 8   5/130/ 8
Buoy 41008       1950   63 61   50/  6/  6 1029.9F   4/ 9   3/140/ 9
Folly Beach CMAN 2000   67     130/  5/  6 1031.2F
Capers Nearshore 1908   67 62  130/  4/  6 1030.7F
Fripp Nearshore  1908   65 60  110/  4/  6 1030.7F


STATION/POSITION TIME  TEMP    WIND        PRES    WAVE   SWELL
                       AIR SEA DIR/SP/G            HT/PER HT/PER/DIR
                 (UTC) (F)     (DEG/KT/KT) (MB)    (FT/S) (FT/S/D)
5E St. Marys GA  2000      66                N/A     3/ 9   2/ 90/14
Frying Pan Buoy  1950   72 71  200/  8/ 10 1030.7F   4/ 8   3/140/ 8
Buoy 41025       1950   74 76  200/ 16/ 19 1030.9F   4/16   3/230/16
Cape Lookout NC  1900          230/  8/ 11 1031.3F
Buoy 41002       1950   73 74  160/  6/  8 1031.5F   6/ 9   7/120/ 9
Buoy 41010       NOT AVBL
St Augustine FL  2000   70 68   70/  7/  7 1029.0F


$$




USA.gov is the U.S. government's official web portal to all federal, state and local government web resources and services.